+ View the NASA Portal
+ Center for Near-Earth Object Studies
JPL Small-Body Database Browser
Search:
[
help
]
118046 (3259 T-2)
Classification:
Main-belt Asteroid
SPK-ID:
2118046
[
Ephemeris
|
Orbit Diagram
|
Orbital Elements
|
Mission Design
|
Physical Parameters
|
Discovery Circumstances
|
Close-Approach Data
]
[ show orbit diagram ]
Orbital Elements at Epoch 2459200.5 (2020-Dec-17.0) TDB
Reference:
JPL 15
(heliocentric ecliptic J2000)
Element
Value
Uncertainty (1-sigma)
Units
e
.1924020352911271
4.6597e-08
a
3.109711771163099
2.0258e-08
au
q
2.511396897222543
1.4882e-07
au
i
3.782946268081882
5.1441e-06
deg
node
57.09012603723615
7.5243e-05
deg
peri
311.3738900725309
7.6271e-05
deg
M
198.4738624504495
1.351e-05
deg
t
p
2460099.208689236507
(2023-Jun-03.70868924)
8.024e-05
TDB
period
2002.989318220362
5.48
1.9572e-05
5.359e-08
d
yr
n
.1797313628810845
1.7562e-09
deg/d
Q
3.708026645103654
2.4155e-08
au
Orbit Determination Parameters
# obs. used (total)
488
data-arc span
16989 days (46.51 yr)
first obs. used
1973-09-19
last obs. used
2020-03-25
planetary ephem.
DE431
SB-pert. ephem.
SB431-N16
condition code
0
norm. resid. RMS
.60098
source
ORB
producer
Otto Matic
solution date
2020-Nov-12 18:14:30
Additional Information
Earth MOID
= 1.51127 au
Jupiter MOID
= 1.75938 au
T_jup
= 3.187
[ show covariance matrix ]
[
Ephemeris
|
Orbit Diagram
|
Orbital Elements
|
Mission Design
|
Physical Parameters
|
Discovery Circumstances
|
Close-Approach Data
]
Physical Parameter Table
Parameter
Symbol
Value
Units
Sigma
Reference
Notes
absolute magnitude
H
15.43
n/a
E2021B55
diameter
diameter
5.757
km
0.992
urn:nasa:pds:neowise_diameters_albedos::2.0[mainbelt] (http://adsabs.harvard.edu/abs/2011ApJ...741...68M)
geometric albedo
albedo
0.040
0.020
urn:nasa:pds:neowise_diameters_albedos::2.0[mainbelt] (http://adsabs.harvard.edu/abs/2011ApJ...741...68M)
118046 (3259 T-2)
Discovered 1973-Sep-30 by van Houten, C. J., van Houten-Groeneveld, I., Gehrels, T. at Palomar
Reference:
20051019/Numbers.arc
Last Updated:
2005-10-26
[ show close-approach data ]
Alternate Designations
3259 T-2
= 2001 UG117
[
Ephemeris
|
Orbit Diagram
|
Orbital Elements
|
Mission Design
|
Physical Parameters
|
Discovery Circumstances
|
Close-Approach Data
]
2021-Apr-10 20:36 UT
(server date/time)
Site Manager:
Ryan S. Park
Webmaster
:
Alan B. Chamberlin